Location: Grange Rosano
(44.4500°N, 6.9667°E)
Time: 19:47:54
(UTC+00:00)

Cosmos 1455 - Pass Details

Date: 26 May 2022
Orbit: 492 x 514 km, 82.5° (Epoch: 01 July)

Event Time Altitude Azimuth Distance (km) Brightness Sun altitude
Rises 00:48:00 0° 3° (N) 2,585 7.1 -22.0°
Reaches altitude 10° 00:50:25 10° 17° (NNE) 1,696 6.0 -21.9°
Maximum altitude 00:53:30 24° 74° (ENE) 1,047 4.1 -21.7°
Enters shadow 00:55:15 17° 114° (ESE) 1,289 4.2 -21.6°
